Weather reports worldwide

Advertisment
Landivisiau, France (7106): temperature & dewpoint: 20.10.2020 10:00:00 - 26.10.2020 10:00:00 (CET)Landivisiau, France (7106): temperature 5cm: 20.10.2020 10:00:00 - 26.10.2020 10:00:00 (CET)Landivisiau, France (7106): temperature -20cm: 20.10.2020 10:00:00 - 26.10.2020 10:00:00 (CET)Landivisiau, France (7106): wind speed: 20.10.2020 10:00:00 - 26.10.2020 10:00:00 (CET)Landivisiau, France (7106): wind direction: 20.10.2020 10:00:00 - 26.10.2020 10:00:00 (CET)Landivisiau, France (7106): reduced air pressure: 20.10.2020 10:00:00 - 26.10.2020 10:00:00 (CET)Landivisiau, France (7106): visibility: 20.10.2020 10:00:00 - 26.10.2020 10:00:00 (CET)Landivisiau, France (7106): precipitation: 20.10.2020 10:00:00 - 26.10.2020 10:00:00 (CET)
Date & Time tt [°C] td [°C] tt 5cm [°C] tt -20cm [°C] ff [km/h] ff [kn] dd ppp [hPa] vv [km] rr [mm]
26.10.2020 10:00:00 11,3 7,8 9,0 11,4 24 13 W 1005,6 16 0,0
26.10.2020 09:00:00 9,4 7,5 8,3 11,5 18 10 WSW 1005,1 14 0,0
26.10.2020 08:00:00 9,1 6,4 7,3 11,6 21 12 W 1004,5 20 0,0
26.10.2020 07:00:00 8,6 6,2 7,3 11,6 18 10 WSW 1003,9 20 0,6
26.10.2020 06:00:00 9,7 7,1 7,9 11,7 19 10 W 1003,3 7 0,0
26.10.2020 05:00:00 9,3 6,7 7,8 11,8 25 13 W 1003,0 17 0,8
26.10.2020 04:00:00 8,9 6,7 6,9 11,9 20 11 WSW 1002,7 20 0,0
26.10.2020 03:00:00 8,7 6,7 6,9 12,0 17 9 WSW 1002,8 19 0,0
26.10.2020 02:00:00 8,6 6,2 6,8 12,1 18 10 WSW 1002,5 37 0,0
26.10.2020 01:00:00 8,5 5,8 6,6 12,2 18 10 WSW 1002,4 37 0,0
26.10.2020 00:00:00 8,6 5,7 7,1 12,3 19 10 WSW 1002,4 36 0,0
25.10.2020 23:00:00 8,6 5,7 6,8 12,5 21 11 WSW 1002,3 40 0,0
25.10.2020 22:00:00 8,8 6,1 6,6 12,5 19 11 WSW 1001,8 19 0,2
25.10.2020 21:00:00 8,5 6,1 7,3 12,7 22 12 SW 1001,2 8 0,4
25.10.2020 20:00:00 9,2 5,4 7,6 12,7 29 16 WSW 1000,6 11 0,0
25.10.2020 19:00:00 10,1 4,5 9,2 12,8 25 14 WSW 1000,0 49 0,0
25.10.2020 18:00:00 11,0 5,7 10,3 12,7 29 16 WSW 999,3 42 0,0
25.10.2020 17:00:00 11,6 6,3 11,4 12,7 24 13 WSW 999,2 27 0,0
25.10.2020 16:00:00 12,2 7,3 11,8 12,6 28 15 WSW 998,8 20 0,0
25.10.2020 15:00:00 12,1 7,0 11,0 12,6 27 15 WSW 998,6 34 0,2
25.10.2020 14:00:00 11,4 7,9 11,6 12,5 16 9 W 999,1 41 0,2
25.10.2020 13:00:00 11,4 7,1 10,4 12,4 31 17 SW 999,2 16 0,0
25.10.2020 12:00:00 13,5 7,3 13,7 12,3 38 21 WSW 999,1 20 0,0
25.10.2020 11:00:00 12,4 7,9 9,3 12,3 34 18 SW 999,4 20 1,0
25.10.2020 10:00:00 10,9 8,5 8,3 12,4 19 10 SSW 999,7 17 0,0
25.10.2020 09:00:00 8,5 7,0 7,7 12,5 17 9 SSW 999,8 19 0,0
25.10.2020 08:00:00 9,5 7,1 8,2 12,6 27 14 SSW 999,4 35 1,2
25.10.2020 07:00:00 9,6 6,5 8,1 12,7 19 10 SW 999,4 42 0,0
25.10.2020 06:00:00 9,5 6,9 7,7 12,8 19 10 SW 999,5 20 0,0
25.10.2020 05:00:00 10,0 7,1 8,3 12,9 19 11 SW 999,3 20 0,0
25.10.2020 04:00:00 10,1 7,0 8,4 13,0 24 13 SSW 999,6 38 0,0
25.10.2020 03:00:00 10,5 8,4 8,9 13,1 18 10 SSW 1000,2 19 0,4
25.10.2020 02:00:00 10,5 8,6 8,0 13,2 19 11 SSW 1000,5 18 0,0
25.10.2020 01:00:00 - - - - - - - - - -
25.10.2020 00:00:00 10,9 9,0 9,4 13,4 19 11 SW 1001,2 18 0,0
24.10.2020 23:00:00 11,4 10,0 10,4 13,4 24 13 SW 1000,9 17 0,0
24.10.2020 22:00:00 11,3 9,9 10,2 13,5 26 14 SW 1000,8 18 0,0
24.10.2020 21:00:00 10,9 9,3 10,2 13,6 29 15 SW 1000,6 48 0,0
24.10.2020 20:00:00 11,3 9,0 10,2 13,6 31 17 WSW 1000,3 19 3,3
24.10.2020 19:00:00 12,7 11,3 11,9 13,6 40 22 SW 1000,1 11 0,2
24.10.2020 18:00:00 12,6 11,5 12,0 13,6 32 18 SW 999,7 14 1,6
24.10.2020 17:00:00 13,2 12,4 12,6 13,5 37 20 SW 1000,5 6 11,0
24.10.2020 16:00:00 15,2 14,1 14,6 13,4 50 27 SW 1000,3 1,4 2,2
24.10.2020 15:00:00 15,7 13,5 14,7 13,3 58 32 SSW 1001,5 11 0,0
24.10.2020 14:00:00 15,5 13,3 14,6 13,3 55 30 SW 1003,0 15 0,2
24.10.2020 13:00:00 15,7 13,0 14,6 13,2 51 28 SW 1004,2 14 0,0
24.10.2020 12:00:00 15,4 13,1 15,0 13,1 45 24 SW 1005,1 10 0,0
24.10.2020 11:00:00 15,5 13,0 14,8 13,0 46 25 SW 1005,9 19 0,0
24.10.2020 10:00:00 14,9 13,6 13,4 13,0 44 24 SW 1006,7 15 0,2
24.10.2020 09:00:00 13,6 12,8 12,9 13,0 35 19 SSW 1007,6 5 0,2
24.10.2020 08:00:00 13,8 11,8 13,0 13,0 38 21 SSW 1008,0 18 0,0
24.10.2020 07:00:00 13,3 11,5 11,9 13,0 29 16 SSW 1008,4 45 0,0
24.10.2020 06:00:00 12,5 11,1 11,9 13,0 30 16 SW 1009,4 34 0,0
24.10.2020 05:00:00 13,0 11,4 12,2 13,0 38 20 SW 1009,8 45 0,6
24.10.2020 04:00:00 12,5 11,9 11,9 13,0 21 11 SW 1010,4 1,5 0,8
24.10.2020 03:00:00 12,3 11,4 11,5 13,1 24 13 SSW 1011,1 10 0,0
24.10.2020 02:00:00 12,0 11,1 10,8 13,2 21 11 SSW 1012,0 20 0,0
24.10.2020 01:00:00 11,6 10,7 10,2 13,2 20 11 SSW 1012,6 20 0,0
24.10.2020 00:00:00 11,2 10,4 10,0 13,3 18 10 SW 1013,3 20 0,2
23.10.2020 23:00:00 11,2 10,6 10,1 13,4 18 10 SW 1013,3 19 0,0
23.10.2020 22:00:00 11,0 10,5 9,2 13,5 15 8 SW 1013,3 14 0,0
23.10.2020 21:00:00 10,7 10,1 9,3 13,6 15 8 SW 1013,3 19 0,0
23.10.2020 20:00:00 11,1 10,2 10,2 13,6 15 8 SW 1013,4 44 0,0
23.10.2020 19:00:00 11,6 10,3 10,9 13,6 19 10 SW 1013,1 54 0,2
23.10.2020 18:00:00 12,0 11,2 11,9 13,5 12 6 SSW 1012,9 12 0,0
23.10.2020 17:00:00 12,0 10,9 11,9 13,5 12 7 WSW 1012,9 48 0,6
23.10.2020 16:00:00 12,2 11,3 12,1 13,4 26 14 W 1012,8 2,0 1,4
23.10.2020 15:00:00 13,0 11,4 12,6 13,3 30 16 SW 1012,4 4,0 0,2
23.10.2020 14:00:00 13,7 10,5 14,3 13,2 31 17 WSW 1012,2 12 0,0
23.10.2020 13:00:00 14,0 9,4 14,4 13,2 29 16 WSW 1012,4 28 0,0
23.10.2020 12:00:00 13,8 9,2 14,1 13,1 26 14 W 1012,4 20 0,0
23.10.2020 11:00:00 13,5 9,9 12,0 13,1 22 12 WSW 1012,0 30 0,0
23.10.2020 10:00:00 12,3 10,5 11,6 13,1 18 10 W 1011,6 38 0,0
23.10.2020 09:00:00 12,5 11,2 11,6 13,1 18 10 WSW 1010,9 25 0,0
23.10.2020 08:00:00 12,5 11,7 11,8 13,1 12 7 WSW 1010,2 17 0,0
23.10.2020 07:00:00 13,0 12,4 12,5 13,2 21 11 WSW 1009,8 4,9 1,0
23.10.2020 06:00:00 12,8 12,0 11,3 13,2 14 7 SSW 1009,8 15 0,4
23.10.2020 05:00:00 11,9 11,3 10,3 13,3 13 7 SSW 1009,6 20 0,0
23.10.2020 04:00:00 11,6 10,8 10,3 13,4 17 9 SSW 1009,9 20 0,0
23.10.2020 03:00:00 11,9 11,0 10,2 13,5 15 8 SSW 1010,4 34 0,2
23.10.2020 02:00:00 12,0 11,2 9,1 13,6 11 6 SSW 1010,7 20 0,2
23.10.2020 01:00:00 11,2 10,4 9,6 13,7 12 7 SSW 1011,2 20 0,0
23.10.2020 00:00:00 11,5 10,7 10,1 13,8 13 7 SSW 1011,3 20 0,2
22.10.2020 23:00:00 11,8 10,7 10,6 13,9 12 6 SSW 1011,3 20 0,0
22.10.2020 22:00:00 12,0 11,2 10,6 13,9 12 6 SSW 1011,3 29 0,0
22.10.2020 21:00:00 12,3 11,2 10,9 14,0 11 6 S 1011,2 29 0,0
22.10.2020 20:00:00 12,6 11,0 11,2 14,0 11 6 S 1011,1 41 0,0
22.10.2020 19:00:00 13,7 11,0 12,0 14,0 10 5 SSW 1010,9 43 0,0
22.10.2020 18:00:00 15,0 11,2 14,1 14,0 10 5 SSW 1010,5 44 0,0
22.10.2020 17:00:00 16,2 9,8 16,3 13,9 16 9 SW 1010,2 54 0,0
22.10.2020 16:00:00 17,3 9,7 17,3 13,7 22 12 SW 1010,1 25 0,0
22.10.2020 15:00:00 17,7 10,8 19,0 13,4 20 11 SW 1010,0 20 0,0
22.10.2020 14:00:00 17,5 11,1 18,8 13,2 15 8 SW 1010,1 47 0,0
22.10.2020 13:00:00 17,3 11,8 18,0 13,0 13 7 WSW 1010,5 49 0,0
22.10.2020 12:00:00 15,9 12,5 16,2 12,9 14 7 SSW 1010,6 20 0,0
22.10.2020 11:00:00 14,9 12,0 13,6 12,9 16 8 SSW 1010,5 37 0,0
22.10.2020 10:00:00 13,2 12,4 12,8 12,9 12 6 SW 1010,4 16 0,0
22.10.2020 09:00:00 12,8 12,3 10,4 12,9 7 4 SW 1009,9 10 0,0
22.10.2020 08:00:00 12,2 11,9 9,0 13,0 11 6 SSW 1009,0 9 0,0
22.10.2020 07:00:00 11,6 11,1 9,0 13,0 6 4 S 1008,6 1,3 0,0
22.10.2020 06:00:00 12,1 11,6 10,6 13,1 8 4 S 1008,5 11 0,0
22.10.2020 05:00:00 12,0 11,5 10,9 13,1 8 4 S 1008,0 6 0,0
22.10.2020 04:00:00 12,3 11,8 11,9 13,2 12 7 SSW 1008,1 8 0,0
22.10.2020 03:00:00 12,5 11,9 12,0 13,2 11 6 SSW 1008,1 10 0,0
22.10.2020 02:00:00 12,4 11,8 10,1 13,3 15 8 SSW 1008,0 11 0,0
22.10.2020 01:00:00 11,6 11,0 10,1 13,4 14 7 SSW 1007,7 12 0,2
22.10.2020 00:00:00 11,2 10,4 10,0 13,5 14 8 S 1007,4 12 0,0
21.10.2020 23:00:00 11,5 10,6 10,3 13,6 10 5 SSW 1007,0 14 0,0
21.10.2020 22:00:00 11,9 10,8 9,9 13,7 13 7 SSW 1006,6 16 0,0
21.10.2020 21:00:00 11,8 10,4 10,5 13,8 13 7 SSW 1006,0 17 0,0
21.10.2020 20:00:00 12,1 10,3 11,0 13,9 15 8 SSW 1005,5 19 0,0
21.10.2020 19:00:00 12,7 10,2 11,6 13,9 20 11 SSW 1004,7 20 0,0
21.10.2020 18:00:00 13,7 10,3 12,8 13,9 24 13 SW 1003,8 43 0,0
21.10.2020 17:00:00 14,8 10,2 15,4 13,9 27 14 SW 1003,2 20 0,0
21.10.2020 16:00:00 15,5 10,0 15,5 13,8 32 18 WSW 1002,5 20 0,0
21.10.2020 15:00:00 15,6 11,2 15,3 13,7 32 18 WSW 1001,4 23 0,0
21.10.2020 14:00:00 14,8 13,2 14,4 13,7 23 13 WSW 1000,4 41 0,0
21.10.2020 13:00:00 14,4 13,4 14,2 13,6 29 15 SW 998,9 8 0,0
21.10.2020 12:00:00 14,2 13,1 14,1 13,6 24 13 SW 998,3 16 0,2
21.10.2020 11:00:00 14,1 13,1 13,9 13,5 25 14 WSW 997,0 36 0,6
21.10.2020 10:00:00 14,4 13,9 14,4 13,5 16 9 SW 995,5 9 0,8
21.10.2020 09:00:00 14,2 13,9 14,1 13,5 18 10 SW 994,2 1,4 0,6
21.10.2020 08:00:00 14,2 13,9 13,9 13,5 13 7 SW 992,7 1,8 3,5
21.10.2020 07:00:00 14,1 13,8 13,7 13,4 0 0 N 991,6 1,9 3,2
21.10.2020 06:00:00 14,1 13,8 13,9 13,5 2 1 E 991,4 2,1 5,8
21.10.2020 05:00:00 14,2 13,9 14,0 13,4 8 4 ENE 991,2 2,1 4,3
21.10.2020 04:00:00 14,3 13,8 14,0 13,4 5 3 NE 992,0 2,9 1,4
21.10.2020 03:00:00 14,7 13,9 14,1 13,4 5 3 ESE 993,0 8 0,4
21.10.2020 02:00:00 15,0 14,0 14,7 13,4 10 5 SSE 994,0 10 0,0
21.10.2020 01:00:00 15,1 13,8 14,8 13,5 12 6 SSE 994,6 11 0,0
21.10.2020 00:00:00 15,1 13,5 14,3 13,5 10 6 SSE 995,2 14 0,0
20.10.2020 23:00:00 14,7 13,1 14,1 13,5 10 5 SE 996,2 14 0,0
20.10.2020 22:00:00 14,5 12,9 13,6 13,5 17 9 SE 996,6 15 0,0
20.10.2020 21:00:00 14,5 12,7 13,7 13,6 17 9 SE 996,9 17 0,0
20.10.2020 20:00:00 15,0 11,6 14,3 13,6 16 9 SSE 997,8 48 0,0
20.10.2020 19:00:00 15,5 11,5 14,4 13,5 13 7 SSE 998,4 47 0,0
20.10.2020 18:00:00 15,9 11,7 15,3 13,5 18 10 S 998,0 43 0,0
20.10.2020 17:00:00 17,1 12,0 17,6 13,4 26 14 SSW 998,9 24 0,0
20.10.2020 16:00:00 17,8 12,5 18,0 13,2 36 20 SSW 999,3 34 0,0
20.10.2020 15:00:00 18,0 12,4 18,2 13,0 38 21 SSW 999,5 29 0,0
20.10.2020 14:00:00 18,0 12,4 19,1 12,8 36 20 SSW 1000,0 14 0,0
20.10.2020 13:00:00 17,8 13,1 18,4 12,7 39 21 SSW 1000,4 14 0,0
20.10.2020 12:00:00 17,3 13,2 16,9 12,6 36 20 SSW 1000,7 18 0,0
20.10.2020 11:00:00 16,5 13,0 16,3 12,5 38 20 SSW 1000,9 18 0,0
20.10.2020 10:00:00 15,8 13,1 15,1 12,4 37 20 SSW 1000,6 19 0,0

tt = temperature
td = dewpoint
tt 5cm = temperature 5cm
tt -20cm = temperature -20cm
ff = wind speed
dd = wind direction
ppp = reduced air pressure
vv = visibility
rr = precipitation

Next stations